Location: ??
(31.9467°N, 34.8903°E)
Time: 18:00:30
(UTC+00:00)

Cosmos 1408 - Pass Details

Date: 29 October 2020
Orbit: 470 x 492 km, 82.6° (Epoch: 30 November)

Event Time Altitude Azimuth Distance (km) Brightness Sun altitude
Rises 16:42:08 0° 345° (NNW) 2,556 6.4 -23.6°
Reaches altitude 10° 16:44:19 10° 337° (NNW) 1,675 5.5 -24.1°
Maximum altitude 16:47:45 40° 268° (W) 733 3.9 -24.8°
Drops below altitude 10° 16:51:12 10° 197° (SSW) 1,674 5.5 -25.6°
Sets 16:53:23 0° 190° (S) 2,554 6.4 -26.0°
